| time (UTC) | temp F | wind direction | speed MPH | gust MPH | rain 1hr in | rain 24hr in | rain mn in | humidity % | barometer mb |
| 20260510234523 | 83 | 238 | 9.0 | 20.0 | 0.00 | 0.00 | 0.00 | 19 | 1008.7 |
| 20260510233023 | 84 | 245 | 10.0 | 19.0 | 0.00 | 0.00 | 0.00 | 18 | 1008.7 |
| 20260510231527 | 84 | 245 | 11.0 | 20.0 | 0.00 | 0.00 | 0.00 | 17 | 1008.7 |
| 20260510230022 | 84 | 269 | 11.0 | 20.0 | 0.00 | 0.00 | 0.00 | 16 | 1008.8 |
| 20260510224520 | 84 | 248 | 12.0 | 22.0 | 0.00 | 0.00 | 0.00 | 16 | 1008.8 |
| 20260510223019 | 84 | 238 | 14.0 | 23.0 | 0.00 | 0.00 | 0.00 | 18 | 1008.8 |
| 20260510221519 | 84 | 262 | 12.0 | 23.0 | 0.00 | 0.00 | 0.00 | 17 | 1008.9 |
| 20260510220017 | 85 | 237 | 13.0 | 18.0 | 0.00 | 0.00 | 0.00 | 17 | 1009.1 |
| 20260510214517 | 83 | 208 | 13.0 | 27.0 | 0.00 | 0.00 | 0.00 | 16 | 1009.3 |
| 20260510213019 | 84 | 259 | 15.0 | 20.0 | 0.00 | 0.00 | 0.00 | 15 | 1009.3 |
| 20260510211513 | 86 | 164 | 11.0 | 16.0 | 0.00 | 0.00 | 0.00 | 18 | 1009.2 |
| 20260510210012 | 85 | 112 | 4.0 | 18.0 | 0.00 | 0.00 | 0.00 | 20 | 1009.5 |
| 20260510204509 | 86 | 125 | 0.0 | 9.0 | 0.00 | 0.00 | 0.00 | 19 | 1009.7 |
| 20260510203009 | 84 | 236 | 2.0 | 11.0 | 0.00 | 0.00 | 0.00 | 20 | 1009.9 |
| 20260510201505 | 84 | 233 | 3.0 | 13.0 | 0.00 | 0.00 | 0.00 | 19 | 1010.2 |
| 20260510200003 | 85 | 140 | 2.0 | 9.0 | 0.00 | 0.00 | 0.00 | 18 | 1010.2 |
| 20260510194600 | 83 | 190 | 0.0 | 11.0 | 0.00 | 0.00 | 0.00 | 18 | 1010.5 |
| 20260510193057 | 82 | 168 | 2.0 | 8.0 | 0.00 | 0.00 | 0.00 | 19 | 1010.7 |
| 20260510191555 | 81 | 186 | 6.0 | 13.0 | 0.00 | 0.00 | 0.00 | 20 | 1010.8 |
| 20260510190059 | 81 | 134 | 3.0 | 11.0 | 0.00 | 0.00 | 0.00 | 16 | 1011.1 |
| 20260510184613 | 80 | 169 | 5.0 | 11.0 | 0.00 | 0.00 | 0.00 | 16 | 1011.3 |
| 20260510183049 | 80 | 187 | 6.0 | 10.0 | 0.00 | 0.00 | 0.00 | 16 | 1011.5 |
| 20260510181556 | 79 | 167 | 0.0 | 7.0 | 0.00 | 0.00 | 0.00 | 19 | 1011.8 |
| 20260510180056 | 77 | 183 | 4.0 | 9.0 | 0.00 | 0.00 | 0.00 | 18 | 1012.0 |
| 20260510174538 | 75 | 89 | 2.0 | 8.0 | 0.00 | 0.00 | 0.00 | 20 | 1012.0 |
| 20260510173034 | 73 | 193 | 1.0 | 7.0 | 0.00 | 0.00 | 0.00 | 24 | 1012.0 |
| 20260510171540 | 72 | 205 | 3.0 | 6.0 | 0.00 | 0.00 | 0.00 | 24 | 1012.1 |
| 20260510170031 | 71 | 164 | 3.0 | 6.0 | 0.00 | 0.00 | 0.00 | 23 | 1012.1 |
| 20260510164527 | 69 | 203 | 3.0 | 5.0 | 0.00 | 0.00 | 0.00 | 25 | 1012.1 |
| 20260510163026 | 69 | 150 | 1.0 | 6.0 | 0.00 | 0.00 | 0.00 | 26 | 1012.1 |
| 20260510161523 | 68 | 159 | 0.0 | 7.0 | 0.00 | 0.00 | 0.00 | 29 | 1012.3 |
| 20260510160020 | 67 | 123 | 0.0 | 8.0 | 0.00 | 0.00 | 0.00 | 29 | 1012.2 |
| 20260510154517 | 65 | 156 | 3.0 | 7.0 | 0.00 | 0.00 | 0.00 | 29 | 1012.2 |
| 20260510153030 | 65 | 143 | 4.0 | 7.0 | 0.00 | 0.00 | 0.00 | 29 | 1012.2 |
| 20260510151512 | 65 | 150 | 0.0 | 4.0 | 0.00 | 0.00 | 0.00 | 29 | 1012.4 |
| 20260510150012 | 64 | 153 | 0.0 | 3.0 | 0.00 | 0.00 | 0.00 | 29 | 1012.4 |
| 20260510144523 | 63 | 155 | 0.0 | 0.0 | 0.00 | 0.00 | 0.00 | 32 | 1012.5 |
| 20260510143005 | 61 | 155 | 0.0 | 2.0 | 0.00 | 0.00 | 0.00 | 34 | 1012.4 |
| 20260510141505 | 59 | 110 | 0.0 | 0.0 | 0.00 | 0.00 | 0.00 | 37 | 1012.3 |
| 20260510140004 | 56 | 110 | 0.0 | 0.0 | 0.00 | 0.00 | 0.00 | 36 | 1012.2 |
| 20260510134503 | 53 | 110 | 0.0 | 0.0 | 0.00 | 0.00 | 0.00 | 41 | 1012.1 |
| 20260510133003 | 54 | 110 | 0.0 | 0.0 | 0.00 | 0.00 | 0.00 | 37 | 1011.9 |
| 20260510131501 | 54 | 110 | 0.0 | 0.0 | 0.00 | 0.00 | 0.00 | 37 | 1012.0 |
| 20260510130101 | 54 | 110 | 0.0 | 0.0 | 0.00 | 0.00 | 0.00 | 36 | 1012.0 |
| 20260510124601 | 55 | 103 | 0.0 | 2.0 | 0.00 | 0.00 | 0.00 | 36 | 1012.0 |
| 20260510123102 | 55 | 6 | 0.0 | 0.0 | 0.00 | 0.00 | 0.00 | 35 | 1012.1 |
| 20260510121600 | 54 | 6 | 0.0 | 0.0 | 0.00 | 0.00 | 0.00 | 35 | 1012.1 |
| 20260510120057 | 54 | 6 | 0.0 | 0.0 | 0.00 | 0.00 | 0.00 | 34 | 1012.1 |
| 20260510114556 | 57 | 6 | 0.0 | 0.0 | 0.00 | 0.00 | 0.00 | 34 | 1012.1 |
| 20260510113057 | 56 | 7 | 0.0 | 0.0 | 0.00 | 0.00 | 0.00 | 33 | 1012.1 |
| 20260510111554 | 54 | 6 | 0.0 | 0.0 | 0.00 | 0.00 | 0.00 | 35 | 1012.1 |
| 20260510110053 | 53 | 25 | 0.0 | 2.0 | 0.00 | 0.00 | 0.00 | 42 | 1012.1 |
| 20260510104559 | 56 | 345 | 0.0 | 2.0 | 0.00 | 0.00 | 0.00 | 37 | 1012.1 |
| 20260510103051 | 54 | 32 | 0.0 | 3.0 | 0.00 | 0.00 | 0.00 | 39 | 1012.1 |
| 20260510101553 | 54 | 25 | 1.0 | 3.0 | 0.00 | 0.00 | 0.00 | 39 | 1012.4 |
| 20260510100054 | 55 | 15 | 1.0 | 3.0 | 0.00 | 0.00 | 0.00 | 37 | 1012.2 |
| 20260510094553 | 54 | 27 | 0.0 | 2.0 | 0.00 | 0.00 | 0.00 | 37 | 1012.3 |
| 20260510093048 | 57 | 20 | 2.0 | 3.0 | 0.00 | 0.00 | 0.00 | 34 | 1012.2 |
| 20260510091542 | 60 | 6 | 0.0 | 1.0 | 0.00 | 0.00 | 0.00 | 30 | 1012.3 |
| 20260510090042 | 59 | 6 | 0.0 | 0.0 | 0.00 | 0.00 | 0.00 | 31 | 1012.2 |
| 20260510084556 | 57 | 6 | 0.0 | 2.0 | 0.00 | 0.00 | 0.00 | 36 | 1012.3 |
| 20260510083049 | 56 | 15 | 0.0 | 3.0 | 0.00 | 0.00 | 0.00 | 35 | 1012.1 |
| 20260510081541 | 56 | 338 | 0.0 | 4.0 | 0.00 | 0.00 | 0.00 | 37 | 1012.3 |
| 20260510080035 | 56 | 1 | 2.0 | 4.0 | 0.00 | 0.00 | 0.00 | 36 | 1012.3 |
| 20260510074536 | 57 | 354 | 1.0 | 4.0 | 0.00 | 0.00 | 0.00 | 35 | 1012.4 |
| 20260510073045 | 58 | 14 | 2.0 | 4.0 | 0.00 | 0.00 | 0.00 | 35 | 1012.4 |
| 20260510071530 | 59 | 20 | 2.0 | 4.0 | 0.00 | 0.00 | 0.00 | 33 | 1012.5 |
| 20260510070026 | 61 | 11 | 1.0 | 3.0 | 0.00 | 0.00 | 0.00 | 30 | 1012.3 |
| 20260510064524 | 61 | 321 | 0.0 | 2.0 | 0.00 | 0.00 | 0.00 | 28 | 1012.4 |
| 20260510063024 | 61 | 1 | 1.0 | 3.0 | 0.00 | 0.00 | 0.00 | 30 | 1012.4 |
| 20260510061523 | 62 | 347 | 2.0 | 3.0 | 0.00 | 0.00 | 0.00 | 26 | 1012.4 |
| 20260510060034 | 64 | 360 | 2.0 | 3.0 | 0.00 | 0.00 | 0.00 | 24 | 1012.3 |
| 20260510054522 | 64 | 353 | 1.0 | 3.0 | 0.00 | 0.00 | 0.00 | 23 | 1012.2 |
| 20260510053021 | 64 | 349 | 0.0 | 3.0 | 0.00 | 0.00 | 0.00 | 23 | 1012.3 |
| 20260510051521 | 64 | 349 | 2.0 | 4.0 | 0.00 | 0.00 | 0.00 | 24 | 1012.3 |
| 20260510050021 | 65 | 311 | 3.0 | 5.0 | 0.00 | 0.00 | 0.00 | 24 | 1012.1 |
| 20260510044520 | 64 | 317 | 2.0 | 5.0 | 0.00 | 0.00 | 0.00 | 26 | 1012.0 |
| 20260510043020 | 65 | 317 | 1.0 | 6.0 | 0.00 | 0.00 | 0.00 | 26 | 1012.0 |
| 20260510041522 | 67 | 306 | 1.0 | 6.0 | 0.00 | 0.00 | 0.00 | 24 | 1011.8 |
| 20260510040019 | 67 | 352 | 0.0 | 3.0 | 0.00 | 0.00 | 0.00 | 23 | 1011.5 |
| 20260510034518 | 69 | 12 | 0.0 | 3.0 | 0.00 | 0.00 | 0.00 | 22 | 1011.3 |
| 20260510033017 | 71 | 18 | 1.0 | 7.0 | 0.00 | 0.00 | 0.00 | 20 | 1011.1 |
| 20260510031517 | 71 | 34 | 1.0 | 6.0 | 0.00 | 0.00 | 0.00 | 20 | 1010.8 |
| 20260510030016 | 72 | 34 | 1.0 | 8.0 | 0.00 | 0.00 | 0.00 | 20 | 1010.7 |
| 20260510024520 | 74 | 30 | 1.0 | 6.0 | 0.00 | 0.00 | 0.00 | 20 | 1010.5 |
| 20260510023015 | 76 | 34 | 2.0 | 6.0 | 0.00 | 0.00 | 0.00 | 19 | 1010.5 |
| 20260510021515 | 77 | 38 | 1.0 | 6.0 | 0.00 | 0.00 | 0.00 | 18 | 1010.4 |
| 20260510020013 | 79 | 33 | 3.0 | 5.0 | 0.00 | 0.00 | 0.00 | 15 | 1010.3 |
| 20260510014513 | 79 | 167 | 0.0 | 5.0 | 0.00 | 0.00 | 0.00 | 15 | 1010.5 |
| 20260510013011 | 81 | 112 | 0.0 | 3.0 | 0.00 | 0.00 | 0.00 | 12 | 1010.7 |
| 20260510011510 | 82 | 79 | 0.0 | 2.0 | 0.00 | 0.00 | 0.00 | 12 | 1010.8 |
| 20260510010009 | 81 | 114 | 0.0 | 7.0 | 0.00 | 0.00 | 0.00 | 13 | 1010.9 |
| 20260510004508 | 81 | 195 | 1.0 | 7.0 | 0.00 | 0.00 | 0.00 | 13 | 1010.8 |
| 20260510003009 | 82 | 85 | 1.0 | 5.0 | 0.00 | 0.00 | 0.00 | 14 | 1010.8 |
| 20260510001507 | 81 | 112 | 2.0 | 8.0 | 0.00 | 0.00 | 0.00 | 13 | 1010.9 |
| 20260510000006 | 82 | 175 | 0.0 | 5.0 | 0.00 | 0.00 | 0.00 | 15 | 1011.0 |